Location: Battersea Observatory
(44.4318°N, 76.3841°W)
Time: 05:10:08
(UTC-05:00)

Vanguard 3 - All Passes

Search period start: 19 January 2022 00:00
Search period end: 29 January 2022 00:00
Orbit: 508 x 3260 km, 33.3° (Epoch: 18 January)

Date Brightness Start Highest point End Pass type
(mag) Time Alt. Az. Time Alt. Az. Time Alt. Az.
19 Jan - 13:05:28 10° SSW 13:09:21 15° SSE 13:12:27 10° SE daylight
19 Jan - 15:16:40 10° SW 15:20:33 20° S 15:23:37 10° SE daylight
19 Jan - 17:29:11 10° SW 17:31:11 13° SSW 17:33:05 10° SSE visible
20 Jan - 11:51:45 10° S 11:54:58 12° SSE 11:57:43 10° SE daylight
20 Jan - 14:01:41 10° SW 14:06:39 21° S 14:10:15 10° SE daylight
20 Jan - 16:14:11 10° SW 16:17:31 19° S 16:20:18 10° SE daylight
21 Jan - 12:46:38 10° SSW 12:52:28 20° SSE 12:56:39 10° ESE daylight
21 Jan - 14:59:01 10° SW 15:03:46 23° S 15:07:15 10° SE daylight
21 Jan - 17:12:25 10° SW 17:14:19 13° SSW 17:16:05 10° S daylight
22 Jan - 11:31:50 10° SSW 11:37:58 17° SSE 11:42:32 10° SE daylight
22 Jan - 13:43:34 10° SW 13:49:47 25° S 13:54:02 10° ESE daylight
22 Jan - 15:56:52 10° WSW 16:00:41 20° SSW 16:03:43 10° SE daylight
23 Jan - 10:18:05 10° S 10:23:09 13° SSE 10:27:18 10° SE daylight
23 Jan - 12:27:57 10° SW 12:35:31 25° S 12:40:34 10° ESE daylight
23 Jan - 14:41:17 10° WSW 14:46:55 26° S 14:50:50 10° SE daylight
23 Jan - 16:55:32 10° SW 16:57:25 12° SSW 16:59:08 10° S daylight
24 Jan - 11:12:28 10° SSW 11:20:52 22° SSE 11:26:40 10° ESE daylight
24 Jan - 13:25:23 10° SW 13:32:52 30° S 13:37:42 10° ESE daylight
24 Jan - 15:39:26 10° WSW 15:43:49 21° SSW 15:47:08 10° SSE daylight
25 Jan - 09:57:42 10° SSW 10:05:53 18° SSE 10:12:00 10° ESE daylight
25 Jan - 12:09:17 10° SW 12:18:29 30° S 12:24:17 10° ESE daylight
25 Jan - 14:23:26 10° WSW 14:30:02 29° S 14:34:22 10° SE daylight
25 Jan - 16:38:30 10° SW 16:40:28 12° SSW 16:42:12 10° S daylight
26 Jan - 08:44:42 10° S 08:50:37 13° SSE 08:55:36 10° SE daylight
26 Jan - 10:53:17 10° SW 11:03:41 28° SSE 11:10:29 10° ESE daylight
26 Jan - 13:07:08 10° WSW 13:15:53 34° S 13:21:17 10° ESE daylight
26 Jan - 15:21:52 10° WSW 15:26:54 22° SSW 15:30:32 10° SSE daylight
27 Jan - 09:37:51 10° SSW 09:48:30 23° SSE 09:56:03 10° ESE daylight
27 Jan - 11:50:36 10° SW 12:01:20 35° S 12:07:53 10° ESE daylight
27 Jan - 14:05:28 10° WSW 14:13:03 32° SSW 14:17:52 10° SE daylight
27 Jan - 16:21:20 10° SW 16:23:26 12° SSW 16:25:16 10° S daylight
28 Jan - 08:23:42 10° S 08:33:03 18° SSE 08:40:25 10° ESE daylight
28 Jan - 10:34:09 10° SW 10:46:21 33° SSE 10:54:07 10° ESE daylight
28 Jan - 12:48:47 10° WSW 12:58:48 38° S 13:04:48 10° ESE daylight
28 Jan - 15:04:10 10° WSW 15:09:53 23° SSW 15:13:54 10° SSE daylight
